CAPE
3182 3285 3291 3361 3213 2929 2502 3077 2388 2814 2721 2505 2066 2253 2433 2452 2401 2226 2150 2036 1801 1748 1602 1582 1314 960 722 911 623 382 209 206 193 120 138 105 209 209 72 197 140 166 277
3046 3173 3264 3254 3170 3182 3058 2769 3040 2685 2556 2836 2999 2418 2760 2733 2861 2611 2147 2176 1865 1672 1605 1600 1393 1151 1294 1036 857 419 416 356 208 187 347 302 100 91 164 111 167 289 309
2842 3017 3140 3209 3251 3005 3037 2996 3010 3030 3062 3031 2958 3048 2810 2921 2868 2656 2318 2075 1806 1686 1582 1582 1371 1315 1306 1193 868 694 585 608 790 554 476 623 499 144 193 294 224 263 296
2289 2368 2597 2910 2929 2968 2971 3023 2882 3063 3179 3133 3052 2960 2953 3045 2920 2636 2361 2196 2139 2051 1821 1515 1695 1515 1245 1328 1352 1242 1062 1119 959 450 405 163 152 223 232 124 255 433 211
2060 1952 2132 2476 2432 2646 2827 2940 3138 3079 3144 3174 3026 3158 3264 2971 2736 2773 2661 2554 2327 1901 1884 1748 1972 1636 1131 1267 1197 1136 1023 979 682 896 687 219 272 471 194 181 205 246 357
1897 2658 2149 2508 2478 2682 3013 3181 3200 3189 3347 3112 3103 3132 3144 2961 2761 2676 2666 2570 2384 2214 2072 1805 1831 1765 1200 1096 938 910 1180 1468 1368 783 274 140 511 701 425 429 280 259 260
3164 2334 3219 2971 2786 2948 3472 3765 3510 3426 3506 3569 3173 3357 3240 2897 2492 2473 2448 2511 2407 2238 2163 2017 1938 1624 1579 1400 893 578 428 383 363 298 127 72 78 494 905 807 657 486 375
3085 3979 3428 3744 3650 3471 3724 4056 3988 3979 3828 3922 3464 3218 3400 2949 2351 2034 2355 2270 2260 2130 1933 1638 1527 1708 1805 1736 1798 1523 1247 1241 745 344 226 282 324 559 909 580 494 579 553
3524 3168 3942 4064 4256 4030 3993 4175 4239 4204 4042 4013 3504 3228 3393 3140 2189 1848 1950 2029 1964 1995 2234 1765 1873 1643 1634 1215 1682 1525 1433 1430 1285 957 708 671 613 314 219 57 6 71 298
1811 3889 4232 4142 4393 4341 4315 4344 4344 4234 3920 3906 3419 3361 2976 2752 1916 1784 1754 1972 1700 1708 1825 1972 1738 1651 1639 1516 1363 1377 1147 1188 961 788 749 696 231 193 23 18 6 58 291
2541 3386 4166 4281 4397 4509 4557 4532 4425 4225 3761 3380 3219 3251 2987 2553 2184 1473 1390 1534 1658 1749 1741 1829 2017 1649 1313 937 958 1278 1124 1039 918 695 593 592 859 738 585 221 291 188 205
3640 3076 3856 4121 4390 4298 4423 4485 4315 4038 3519 3190 3404 3114 3116 2698 2612 1563 1319 1157 1414 1696 1766 1697 1420 974 721 627 608 720 723 669 778 545 406 163 350 512 481 735 462 412 303
3204 3546 3675 3235 3375 3741 3910 3913 3425 2378 2701 2721 2467 2390 2190 2462 2359 2021 1403 1188 973 820 1187 1079 1148 974 779 516 388 270 192 350 430 492 329 321 353 377 519 474 366 285 320
2469 3657 3687 3448 3352 2979 2209 1359 1031 612 724 741 515 252 93 876 1610 1858 1647 1274 997 1123 1245 1107 984 897 691 806 547 166 243 372 524 591 568 345 339 260 267 325 247 303 145
2145 3235 3612 3168 2368 1146 556 135 104 22 9 20 0 0 0 40 580 539 1692 1801 1568 981 1120 1255 1058 1053 1010 846 659 550 478 392 286 284 208 193 159 115 149 151 198 146 94
2592 2712 2900 2252 830 202 70 0 0 0 0 0 0 0 0 129 64 161 209 325 350 253 558 826 796 665 577 504 342 298 269 193 192 287 346 302 125 75 60 65 89 125 153
2177 2407 1498 794 416 373 166 1 0 0 0 0 0 0 0 1 0 10 32 29 14 8 408 386 159 105 73 69 47 27 36 34 68 68 65 84 101 82 65 46 58 75 92
1777 1602 1146 849 604 275 100 5 1 14 25 0 0 0 0 0 0 0 0 8 37 88 143 29 0 0 21 33 27 5 0 2 2 13 12 30 45 28 29 28 26 47 33
1698 1579 1222 921 498 311 74 10 117 114 46 2 2 0 0 0 0 0 0 54 62 85 18 1 1 1 2 1 6 10 14 13 6 5 0 0 0 0 1 0 0 0 0
918 1041 867 724 558 692 504 104 159 211 145 46 0 0 0 0 4 18 8 6 3 0 0 0 3 1 2 1 2 2 4 0 1 0 1 0 0 0 0 0 2 11 1
542 524 530 473 471 631 490 618 596 295 114 25 0 0 0 4 44 13 0 0 0 0 2 7 10 10 10 4 0 1 0 0 0 0 0 3 3 0 3 8 3 8 5
428 595 483 754 1100 833 817 734 586 330 159 14 3 0 0 3 8 2 2 7 11 25 30 12 0 0 0 0 0 0 0 0 0 0 0 0 0 0 0 5 10 7 33
777 915 769 489 745 720 435 156 84 38 12 17 1 0 8 1 9 17 20 21 9 5 0 0 0 0 0 0 0 0 0 0 0 0 0 0 0 0 0 0 0 3 9
504 484 409 341 198 295 262 145 39 17 23 16 3 0 0 0 2 12 4 6 6 0 0 0 0 0 0 0 0 0 0 0 0 0 0 0 0 0 0 0 0 0 0
43 191 264 232 157 108 71 61 50 29 0 0 0 0 0 0 0 0 0 0 0 0 0 0 0 0 0 0 0 0 0 0 0 0 0 0 0 0 0 0 0 0 0
153 167 189 185 113 83 27 2 0 0 0 0 0 0 0 0 0 0 0 0 0 0 0 0 0 0 0 0 0 0 0 0 0 0 0 0 0 0 0 0 0 0 0
CIN
-40 -25 -39 -37 -50 -63 -63 -18 -43 -12 -9 -13 -13 -15 -11 -14 -9 -12 -13 -3 -5 -8 -10 -2 -8 -17 -26 -16 -21 -21 -29 -10 -10 -25 -18 -23 -34 -57 -74 -55 -65 -48 -43
-57 -41 -43 -41 -49 -55 -70 -65 -29 -54 -42 -21 -5 -20 -3 -5 -2 -3 -11 -2 -2 -7 -7 -2 -6 -7 -1 -4 -10 -33 -19 -12 -17 -29 -13 -15 -17 -35 -28 -28 -38 -29 -18
-45 -50 -38 -47 -48 -66 -71 -73 -49 -41 -39 -23 -16 -13 -21 -2 -2 -4 -11 -4 -7 -7 -7 -4 -2 -3 -3 -5 -19 -28 -26 -16 -6 -6 -8 -4 -5 -15 -9 -8 -19 -24 -23
-51 -56 -60 -64 -63 -62 -55 -57 -55 -43 -35 -32 -14 -15 -14 -3 -2 -3 -7 -8 -5 -7 -7 -8 -4 -4 -7 -7 -2 -8 -5 -2 -4 -19 -18 -32 -15 -13 -14 -20 -14 -23 -28
-39 -65 -75 -76 -67 -60 -60 -45 -27 -23 -31 -39 -30 -3 -3 -7 -6 -4 -5 -1 -6 -12 -5 -8 -2 -13 -46 -30 -26 -18 -17 -13 -21 -3 -4 -28 -19 -10 -20 -16 -16 -19 -14
-58 -41 -79 -78 -85 -62 -46 -62 -52 -42 -21 -44 -46 -30 -19 -26 -36 -27 -15 -7 -3 -7 -4 -15 -8 -12 -55 -64 -67 -55 -23 -4 -3 -16 -68 -83 -21 -7 -23 -10 -6 -4 -1
-51 -83 -59 -83 -107 -91 -57 -44 -79 -82 -47 -33 -52 -31 -36 -46 -72 -67 -36 -19 -18 -19 -10 -13 -8 -21 -22 -34 -77 -106 -118 -132 -126 -109 -141 -142 -140 -34 -3 -4 -1 -1 -3
-57 -64 -45 -45 -89 -112 -84 -57 -59 -56 -51 -25 -33 -38 -19 -47 -103 -111 -54 -35 -24 -25 -31 -54 -44 -13 -3 -11 -8 -20 -34 -27 -74 -131 -140 -94 -71 -37 -16 -22 -22 -6 -5
-58 -95 -40 -9 -21 -84 -95 -84 -56 -21 -29 -19 -31 -27 -10 -16 -95 -137 -109 -80 -70 -49 -10 -24 -18 -28 -11 -30 -6 -2 -6 -10 -3 -28 -66 -67 -50 -68 -76 -120 -22 -78 -28
-159 -35 -9 -19 -3 -35 -54 -55 -48 -29 -26 -7 -25 -11 -14 -14 -102 -118 -115 -69 -111 -92 -54 -23 -28 -21 -14 -15 -19 -5 -9 -12 -12 -11 -42 -26 -70 -83 -117 -136 -38 -64 -22
-83 -40 -4 -11 -3 -2 -1 -0 -4 -18 -31 -31 -24 -11 -26 -36 -70 -130 -132 -88 -43 -22 -29 -19 -7 -12 -20 -46 -35 -16 -19 -15 -17 -17 -15 -11 -7 -13 -30 -78 -70 -53 -17
-5 -38 -6 -4 -1 -2 -1 -0 -1 -2 -8 -7 -2 -2 -5 -14 -14 -109 -143 -146 -50 -13 -5 -4 -17 -66 -88 -90 -75 -57 -54 -53 -27 -25 -18 -25 -5 -4 -11 -12 -28 -22 -10
-22 -1 -5 -17 -12 -9 -6 -4 -9 -49 -58 -45 -55 -46 -17 -4 -13 -33 -95 -132 -136 -145 -62 -60 -38 -52 -74 -101 -124 -143 -154 -74 -49 -31 -32 -22 -12 -6 -7 -11 -15 -29 -19
-47 -1 -1 -3 -27 -8 -90 -282 -333 -286 -297 -262 -366 -488 -425 -198 -7 -26 -55 -94 -116 -60 -39 -52 -49 -42 -61 -41 -60 -174 -100 -51 -24 -8 -2 -11 -12 -12 -14 -9 -13 -11 -19
-43 -2 -0 -3 -40 -288 -499 -380 -680 -731 -253 -557 -0 -0 -0 -68 -60 -161 -33 -11 -14 -51 -18 -2 -7 -0 -2 -5 -3 -3 -14 -17 -17 -11 -18 -22 -25 -27 -21 -12 -9 -21 -31
-0 -11 -4 -16 -344 -615 -763 -39 -0 -0 -0 -0 -0 -0 -0 -238 -224 -244 -234 -174 -175 -170 -49 -2 -1 -3 -4 -6 -14 -7 -7 -11 -10 -6 -19 -21 -16 -24 -31 -21 -16 -6 -3
-1 -4 -103 -295 -412 -470 -590 -51 -0 -0 -0 -0 -0 -9 -96 -10 -0 -201 -334 -356 -337 -284 -25 -32 -69 -70 -63 -46 -56 -60 -63 -48 -19 -18 -13 -13 -18 -27 -43 -53 -19 -24 -27
-7 -10 -124 -264 -311 -515 -575 -606 -123 -571 -500 -134 -0 -0 -0 -0 -0 -0 -0 -73 -235 -174 -78 -128 -0 -0 -136 -93 -61 -9 -0 -4 -3 -94 -69 -41 -23 -42 -45 -51 -48 -24 -33
-15 -38 -142 -231 -326 -357 -446 -242 -474 -525 -581 -590 -214 -0 -0 -0 -0 -0 -0 -262 -172 -169 -207 -4 -0 -1 -6 -3 -4 -3 -4 -2 -5 -3 -3 -0 -3 -0 -1 -0 -0 -0 -5
-68 -83 -169 -206 -236 -160 -165 -315 -394 -422 -499 -643 -0 -0 -0 -0 -177 -124 -249 -284 -264 -0 -0 -0 -2 -6 -9 -8 -11 -8 -11 -1 -4 -2 -2 -0 -0 -0 -0 -1 -1 -2 -1
-50 -84 -131 -176 -201 -186 -214 -108 -223 -273 -440 -612 -0 -0 -0 -191 -174 -193 -0 -0 -1 -0 -9 -9 -10 -9 -3 -3 -0 -13 -0 -0 -0 -0 -4 -25 -16 -0 -15 -23 -29 -24 -15
-51 -14 -76 -95 -36 -99 -76 -59 -61 -157 -208 -451 -342 -0 -0 -181 -271 -84 -4 -15 -9 -2 -5 -7 -0 -0 -0 -0 -0 -0 -0 -0 -0 -0 -0 -0 -0 -0 -0 -2 -2 -2 -6
-5 -10 -29 -74 -44 -40 -102 -214 -303 -332 -351 -306 -128 -0 -81 -8 -6 -10 -16 -15 -12 -25 -1 -0 -0 -0 -0 -0 -0 -0 -0 -0 -0 -0 -0 -0 -0 -0 -0 -0 -0 -15 -33
-13 -8 -43 -41 -56 -30 -80 -158 -223 -254 -206 -225 -17 -12 -3 -13 -25 -20 -25 -22 -21 -1 -0 -0 -0 -0 -0 -0 -0 -0 -0 -0 -0 -0 -0 -0 -0 -0 -0 -0 -0 -0 -0
-49 -55 -23 -30 -73 -117 -117 -125 -124 -130 -9 -0 -14 -0 -0 -0 -0 -0 -5 -0 -0 -0 -0 -0 -0 -0 -0 -0 -0 -0 -0 -0 -0 -0 -0 -0 -0 -0 -0 -0 -0 -0 -0
-67 -84 -49 -32 -53 -61 -80 -33 -0 -0 -0 -0 -0 -0 -0 -0 -0 -0 -0 -0 -0 -0 -0 -0 -0 -0 -0 -0 -0 -0 -0 -0 -0 -0 -0 -0 -0 -0 -0 -0 -0 -0 -0
Wind_Speed
19 18 19 18 18 18 21 18 19 14 10 10 5 1 1 1 2 2 6 2 3 2 2 3 3 3 4 9 17 12 10 9 8 11 6 4 2 5 6 10 16 18 31
18 18 17 16 18 18 18 19 20 20 19 15 10 10 8 7 10 9 10 8 5 4 3 3 4 5 5 6 9 10 14 8 11 18 14 6 3 2 7 13 10 7 7
15 16 16 16 17 19 18 18 17 18 18 18 15 14 15 16 18 16 11 8 6 4 5 5 5 6 8 9 10 10 9 9 9 14 19 19 11 10 2 5 6 10 8
12 13 15 15 16 17 19 16 17 15 14 14 16 14 13 12 11 9 8 9 6 5 6 7 6 7 7 9 8 8 8 10 10 11 13 15 14 15 10 11 9 7 8
8 10 12 14 16 16 17 17 15 14 13 12 11 13 11 10 10 8 5 6 7 6 7 8 7 7 7 7 7 8 8 10 10 10 16 19 22 18 17 16 16 15 12
11 2 6 10 12 12 10 9 9 10 9 10 10 9 8 7 6 6 5 6 6 6 6 7 8 8 7 6 5 4 13 16 18 20 21 22 24 20 18 15 18 22 25
10 10 6 6 9 9 5 5 6 7 5 5 6 6 4 4 4 6 6 5 6 5 5 5 6 6 6 6 6 6 4 2 12 16 18 18 20 21 21 22 19 17 18
20 15 16 11 9 8 6 5 4 2 2 2 1 1 2 3 4 4 4 3 5 4 4 4 4 6 5 4 4 4 4 3 3 6 8 12 13 15 18 21 23 23 21
26 22 16 15 11 10 9 8 6 5 4 3 4 4 5 6 4 3 2 4 5 3 2 3 3 2 3 3 4 3 2 3 4 4 1 7 12 16 18 20 20 22 24
29 27 20 18 17 15 13 11 9 8 8 8 7 8 11 12 8 2 2 6 5 4 5 6 1 3 3 9 5 1 1 2 3 16 4 5 7 7 8 8 9 11 18
29 28 24 20 20 18 16 14 13 11 9 9 10 10 9 9 10 5 3 8 8 8 7 6 5 4 2 4 6 4 4 9 8 13 10 7 9 10 9 7 8 10 13
34 29 25 23 22 20 18 14 15 14 11 9 12 12 13 14 12 8 6 5 10 17 19 17 15 15 13 10 7 8 10 12 15 16 18 19 21 22 23 20 11 11 12
37 31 26 23 19 18 15 14 14 14 10 10 10 12 16 23 19 14 9 9 11 16 18 22 21 19 18 17 13 11 14 17 17 17 17 19 23 23 26 25 25 22 14
40 36 30 23 22 18 15 13 13 13 15 17 13 14 24 30 33 21 16 15 16 20 20 18 18 18 18 18 18 17 15 15 16 17 20 23 25 25 25 25 25 24 21
42 40 30 26 19 16 13 12 11 11 9 11 15 23 35 54 36 25 18 15 17 19 20 17 17 18 19 18 18 17 16 17 18 19 22 23 23 24 22 21 20 23 22
42 41 33 20 18 14 12 11 11 11 14 19 24 25 13 7 17 23 21 20 20 20 18 18 18 19 20 19 20 19 19 20 21 22 23 24 25 25 26 26 26 24 23
43 37 22 19 18 17 15 13 10 11 13 16 16 13 12 11 16 18 18 17 16 16 18 18 18 20 21 21 21 22 22 23 23 24 26 27 28 27 27 27 28 28 29
42 31 24 21 18 17 16 14 9 7 9 12 15 15 11 11 11 15 15 15 15 15 17 18 19 19 20 20 21 22 23 23 23 24 25 25 25 26 27 28 28 28 29
31 23 23 21 18 15 14 9 5 4 7 10 15 15 12 13 13 15 11 16 17 16 18 19 19 20 20 21 21 21 21 23 23 23 24 25 26 27 28 27 28 29 31
19 18 19 17 16 14 13 17 15 14 6 6 4 4 7 8 11 11 15 16 16 18 18 18 19 19 20 22 22 23 22 23 24 24 25 26 27 27 28 29 30 30 31
19 18 17 18 17 11 7 8 3 2 3 8 11 8 9 5 9 12 14 15 16 17 17 17 18 20 20 21 23 23 24 25 26 27 27 29 29 29 29 29 29 30 30
19 18 17 14 12 8 4 6 4 7 8 10 9 10 9 9 10 11 12 13 15 16 16 17 19 21 22 23 24 25 26 27 28 30 30 31 32 32 32 33 33 33 32
19 18 15 13 10 10 8 8 8 7 6 6 7 8 9 9 10 12 13 13 15 16 18 19 20 21 23 23 24 25 28 29 30 32 33 33 34 34 35 36 37 36 35
21 16 15 16 14 9 9 7 6 7 8 8 9 10 10 10 11 12 13 15 16 17 19 19 20 20 22 24 26 28 30 31 31 33 35 35 34 35 36 36 37 38 40
19 16 13 12 12 11 9 8 8 8 10 11 11 9 9 11 13 15 17 16 16 17 18 19 20 21 22 25 28 30 32 34 34 36 36 34 33 34 35 37 39 41 42
17 15 12 10 10 9 8 8 9 10 10 10 10 11 11 13 14 15 18 19 19 19 20 20 22 21 23 26 29 32 33 34 36 37 36 34 35 36 37 39 40 41 42
Wind_Direction
162 163 166 168 169 174 184 178 182 171 164 174 176 102 69 30 29 105 166 137 21 119 89 40 87 62 53 359 330 338 334 338 349 352 18 123 93 167 177 178 190 196 218
156 160 162 162 166 167 173 180 182 185 187 177 164 170 161 159 166 169 175 164 152 143 126 80 66 100 114 108 33 2 327 8 354 332 354 47 141 187 300 185 185 208 228
148 152 158 161 165 172 169 172 174 179 180 182 176 173 177 184 190 186 173 156 143 96 47 52 73 105 100 79 88 85 76 78 48 1 342 341 3 353 323 219 222 215 223
146 151 157 161 164 169 176 168 172 169 170 172 178 169 168 166 162 154 141 152 131 89 55 27 71 83 80 85 85 84 60 33 30 19 12 9 6 355 354 336 313 285 273
158 158 158 161 166 165 167 171 165 162 158 153 154 161 150 146 152 142 110 57 39 71 113 132 112 70 61 47 42 28 31 11 15 13 353 347 343 355 351 345 336 328 306
185 237 175 166 167 164 161 157 153 153 145 148 146 148 139 135 120 122 100 58 63 77 89 121 136 124 120 114 111 80 353 337 331 329 332 335 335 349 355 1 345 330 315
257 221 249 204 182 181 178 169 163 156 146 139 144 137 124 111 55 145 131 60 69 84 95 93 116 100 133 131 142 162 156 44 340 333 332 339 337 337 338 338 344 344 337
268 276 198 206 206 199 203 210 205 204 174 157 115 46 39 34 16 44 118 64 27 63 74 85 119 150 53 136 112 118 130 114 105 15 351 347 348 347 343 338 333 333 334
275 271 258 266 246 228 216 221 243 259 262 287 309 319 325 339 356 12 49 9 4 22 53 33 31 67 136 128 168 140 84 163 174 215 303 360 351 342 337 333 331 331 327
280 275 267 258 260 241 242 242 251 261 280 290 302 309 311 316 328 330 11 349 350 352 343 339 230 180 10 354 185 198 270 268 231 341 8 350 342 339 343 346 353 343 334
285 278 270 263 259 251 250 251 255 259 270 274 289 300 303 305 310 302 310 332 331 335 334 339 338 332 314 329 328 317 318 341 340 340 340 329 339 340 337 324 327 330 332
286 279 273 268 265 259 244 240 251 250 262 268 289 299 304 305 303 290 292 311 326 321 321 327 334 334 332 330 324 319 323 327 326 326 326 326 328 329 332 334 330 319 320
282 281 274 267 265 256 243 242 242 256 251 265 280 297 306 299 297 295 294 309 314 315 318 316 320 324 326 328 328 321 326 324 324 323 320 321 324 326 325 324 327 332 329
274 278 274 259 260 257 264 264 267 281 285 280 292 311 311 303 277 292 300 310 313 313 316 321 324 326 326 327 329 330 329 329 327 325 324 323 324 324 324 324 323 326 327
271 271 271 266 256 245 253 266 272 285 285 270 284 306 326 288 273 285 300 319 322 322 321 329 333 332 330 332 334 336 337 334 332 330 330 330 329 330 330 331 331 330 327
270 267 266 254 242 232 237 264 291 298 300 300 304 314 323 320 296 289 307 316 320 323 329 331 334 336 336 339 341 343 342 340 338 335 332 329 329 327 326 325 325 326 326
267 267 250 240 233 228 239 256 268 303 330 337 338 350 344 333 306 309 315 327 331 335 334 339 341 339 338 339 338 337 337 338 337 335 332 329 328 329 327 326 324 323 323
265 258 239 236 232 230 233 245 252 293 318 333 334 348 344 331 325 316 314 331 337 339 343 342 343 343 340 342 341 342 343 345 343 339 339 339 338 337 334 330 330 328 326
262 236 230 230 231 229 229 232 252 289 325 350 328 329 332 315 311 307 343 331 337 350 352 352 348 346 344 345 345 349 350 347 347 347 345 343 340 337 334 335 333 331 327
245 226 220 224 215 220 244 265 270 281 314 318 18 63 78 334 316 325 326 332 342 346 348 353 351 353 352 352 351 350 355 355 353 351 348 346 343 340 338 337 335 333 332
227 218 215 222 231 236 245 237 242 125 356 68 93 100 111 66 38 21 10 357 358 359 359 1 358 357 356 358 352 350 349 348 346 343 342 339 337 336 337 335 334 332 330
212 209 200 193 204 207 190 151 153 104 90 73 71 71 75 45 22 10 11 18 4 7 4 1 1 360 0 354 351 347 345 342 341 339 337 335 333 332 331 330 329 327 326
189 189 189 178 173 156 140 124 107 88 64 51 56 58 43 55 45 22 21 22 13 6 3 359 359 355 354 354 356 350 345 341 338 336 333 332 330 328 326 324 322 323 326
159 156 155 140 137 134 127 106 82 73 70 67 68 70 60 46 34 26 21 10 8 6 5 5 3 359 354 352 349 346 343 340 339 335 332 330 328 326 325 324 323 322 321
114 122 128 121 116 110 102 90 78 73 80 69 63 51 35 32 17 2 2 12 9 8 4 358 356 356 357 351 347 345 342 339 337 334 333 332 331 329 328 326 322 320 318
97 102 104 102 100 93 87 79 79 76 67 58 44 41 30 11 4 2 354 351 358 1 359 358 353 358 355 350 346 344 342 340 338 336 336 335 332 329 328 325 323 321 319